User: anonymous
Location: Caltech
(34.1382°N, 118.1253°W)
Time: 23:11:15
(UTC-07:00)
Language:

Meteor 1-11 Rocket - Orbit

View from above orbital plane
View from above orbital plane
View from above satellite
View from above satellite

Ground track
Ground track

The orbit data is extracted from the following two-line orbital elements,

1 05918U 72022B   14113.83557753  .00000062  00000-0  30399-4 0  1470
2 05918 081.2385 358.6206 0057777 319.8849 109.8022 14.05699462156377
Epoch (UTC): 23 April 2014 20:03:13
Eccentricity: 0.0057777
inclination: 81.2385°
perigee height: 832 km
apogee height: 916 km
right ascension of ascending node: 358.6206°
argument of perigee: 319.8849°
revolutions per day: 14.05699462
mean anomaly at epoch: 109.8022°
orbit number at epoch: 15637

The dashed part of the orbit path shows where the satellite is in the earth's shadow,  

DLR